CW3442 Weather Reports


Display with metric or nautical units.
time (UTC)temp
F
wind
direction
speed
MPH
gust
MPH
rain 1hr
in
rain 24hr
in
rain mn
in
humidity
%
barometer
mb
20260903140528 71 188 0.0 0.0 0.00 0.00 0.00 87 1007.0
20260903133526 69 194 0.0 0.0 0.00 0.00 0.00 93 1006.9
20260903130557 68 194 0.0 0.0 0.00 0.00 0.00 95 1007.0
20260903123543 67 194 0.0 0.0 0.00 0.00 0.00 95 1006.9
20260903120557 67 194 0.0 0.0 0.00 0.00 0.00 95 1006.9
20260903113535 67 194 0.0 0.0 0.00 0.00 0.00 96 1006.9
20260903110549 66 194 0.0 0.0 0.00 0.00 0.00 95 1006.9
20260903103557 66 194 0.0 0.0 0.00 0.00 0.00 95 1006.8
20260903100529 66 194 0.0 0.0 0.00 0.00 0.00 95 1006.4
20260903093530 66 194 0.0 0.0 0.00 0.00 0.00 95 1006.2
20260903090548 66 194 0.0 0.0 0.00 0.00 0.00 95 1006.2
20260903083540 65 194 0.0 0.0 0.00 0.00 0.00 95 1006.2
20260903080544 65 194 0.0 0.0 0.00 0.00 0.00 95 1006.3
20260903073524 65 157 0.0 0.0 0.00 0.00 0.00 95 1006.2
20260903070554 65 156 0.0 0.0 0.00 0.00 0.00 95 1006.3
20260903063550 65 114 0.0 0.0 0.00 0.00 0.00 95 1006.2
20260903060547 65 87 0.0 0.0 0.00 0.00 0.00 95 1006.3
20260903053545 65 201 1.0 0.0 0.00 0.00 0.00 94 1006.4
20260903050541 65 113 1.0 0.0 0.00 0.00 0.00 94 1006.7
20260903043535 65 100 0.0 0.0 0.00 0.00 0.00 95 1006.7
20260903040534 65 122 0.0 0.0 0.00 0.00 0.00 94 1007.0
20260903033523 65 190 0.0 0.0 0.00 0.00 0.00 94 1007.1
20260903030540 65 100 1.0 0.0 0.00 0.00 0.00 94 1007.3
20260903023543 65 236 1.0 0.0 0.00 0.00 0.00 94 1007.3
20260903020542 65 83 0.0 0.0 0.00 0.00 0.00 92 1008.0
20260903013531 65 96 0.0 0.0 0.00 0.00 0.00 91 1008.3
20260903010532 66 198 0.0 0.0 0.00 0.00 0.00 90 1007.8
20260903003527 67 76 0.0 0.0 0.00 0.00 0.00 88 1008.0
20260903000531 69 10 0.0 0.0 0.00 0.00 0.00 83 1008.1
20260902233529 70 45 0.0 0.0 0.00 0.00 0.00 81 1007.8
20260902230534 71 105 1.0 0.0 0.00 0.00 0.00 77 1007.9
20260902223551 72 289 1.0 0.0 0.00 0.00 0.00 76 1008.4
20260902220527 72 168 0.0 0.0 0.00 0.00 0.00 75 1008.7
20260902213526 72 275 0.0 0.0 0.00 0.00 0.00 75 1009.2
20260902210539 72 105 1.0 0.0 0.00 0.00 0.00 75 1009.7
20260902203559 72 248 0.0 0.0 0.00 0.00 0.00 78 1010.2
20260902200527 74 117 0.0 0.0 0.00 0.00 0.00 73 1010.2
20260902193526 74 99 0.0 0.0 0.00 0.00 0.00 74 1010.7
20260902190527 74 257 1.0 0.0 0.00 0.00 0.00 73 1011.0
20260902183547 75 104 1.0 0.0 0.00 0.00 0.00 72 1011.6
20260902180539 75 79 1.0 0.0 0.00 0.00 0.00 73 1011.7
20260902173601 75 142 1.0 0.0 0.00 0.00 0.00 72 1011.7
20260902170600 75 330 0.0 0.0 0.00 0.00 0.00 73 1012.1
20260902163549 74 35 0.0 0.0 0.00 0.00 0.00 74 1012.4
20260902160602 71 88 0.0 0.0 0.00 0.00 0.00 80 1013.0
20260902153521 68 88 0.0 0.0 0.00 0.00 0.00 82 1013.3
20260902150542 67 88 0.0 0.0 0.00 0.00 0.00 81 1013.9
20260902143539 67 88 0.0 0.0 0.00 0.00 0.00 81 1013.7